Fort Covington, New York, United States (12937)
Lat: 44.99N, Lon: 74.5W
Wx Zone: NYZ027
Local Info
Past Weather Observations for Friday, December 12, 2014

NOTE: This archive is for the closest National Weather Service station to Fort Covington. Information may differ from the station used for current weather conditions.

Click here for Long-term Archive

Time Weather Temperature Dewpoint Humidity Pressure Winds Precip Visibility
23:53
Overcast
27°F / -3°C 25°F / -4°C 93% 30.04 in
(1017 mb)
SW 5.8 mph
(SW 9 kph)
0.00 in
(0.00 mm)
9SM
22:53
Overcast
27°F / -3°C 23°F / -5°C 86% 30.04 in
(1017 mb)
SSW 4.6 mph
(SSW 7 kph)
- 10SM
21:53
Overcast
27°F / -3°C 21°F / -6°C 80% 30.04 in
(1017 mb)
SSW 5.8 mph
(SSW 9 kph)
0.00 in
(0.00 mm)
10SM
20:53
Overcast
25°F / -4°C 21°F / -6°C 86% 30.04 in
(1017 mb)
SW 6.9 mph
(SW 11 kph)
0.00 in
(0.00 mm)
10SM
19:53
Overcast
25°F / -4°C 21°F / -6°C 86% 30.04 in
(1017 mb)
SSW 6.9 mph
(SSW 11 kph)
0.00 in
(0.00 mm)
10SM
18:53
Overcast
25°F / -4°C 21°F / -6°C 86% 30.04 in
(1017 mb)
SW 5.8 mph
(SW 9 kph)
0.00 in
(0.00 mm)
10SM
17:53
Overcast
Unknown Precip
25°F / -4°C 21°F / -6°C 86% 30.04 in
(1017 mb)
SW 6.9 mph
(SW 11 kph)
0.00 in
(0.00 mm)
10SM
17:02
Overcast
Light Snow
25°F / -4°C 19°F / -7°C 80% 30.01 in
(1016 mb)
SW 9.2 mph
(SW 15 kph)
0.00 in
(0.00 mm)
6SM
16:53
Overcast
Light Snow
25°F / -4°C 19°F / -7°C 80% 30.01 in
(1016 mb)
SW 9.2 mph
(SW 15 kph)
0.00 in
(0.00 mm)
5SM
16:38
Overcast
Light Snow
25°F / -4°C 19°F / -7°C 80% 30.01 in
(1016 mb)
SW 9.2 mph
(SW 15 kph)
0.00 in
(0.00 mm)
8SM
15:53
Overcast
Unknown Precip
25°F / -4°C 19°F / -7°C 80% 30.01 in
(1016 mb)
SSW 10.4 mph
(SSW 17 kph)
0.00 in
(0.00 mm)
10SM
15:06
Overcast
Light Snow
25°F / -4°C 19°F / -7°C 80% 30.01 in
(1016 mb)
SSW 9.2 mph
(SSW 15 kph)
0.00 in
(0.00 mm)
5SM
14:53
Overcast
Light Snow
25°F / -4°C 19°F / -7°C 80% 30.01 in
(1016 mb)
SSW 9.2 mph
(SSW 15 kph)
0.00 in
(0.00 mm)
2 1/2SM
13:53
Overcast
Unknown Precip
25°F / -4°C 19°F / -7°C 80% 29.98 in
(1015 mb)
SSW 9.2 mph
(SSW 15 kph)
0.00 in
(0.00 mm)
10SM
13:12
Overcast
Unknown Precip
25°F / -4°C 19°F / -7°C 80% 29.98 in
(1015 mb)
SSW 11.5 mph
(SSW 19 kph)
0.00 in
(0.00 mm)
10SM
12:53
Overcast
Unknown Precip
25°F / -4°C 19°F / -7°C 80% 29.98 in
(1015 mb)
SW 9.2 mph
(SW 15 kph)
0.00 in
(0.00 mm)
6SM
12:02
Overcast
Unknown Precip
25°F / -4°C 19°F / -7°C 80% 29.98 in
(1015 mb)
SW 10.4 mph
(SW 17 kph)
0.00 in
(0.00 mm)
7SM
11:53
Overcast
Light Snow
25°F / -4°C 19°F / -7°C 80% 29.98 in
(1015 mb)
SW 8.1 mph
(SW 13 kph)
0.00 in
(0.00 mm)
4SM
11:35
Overcast
Light Snow
23°F / -5°C 19°F / -7°C 86% 29.98 in
(1015 mb)
SSW 9.2 mph
(SSW 15 kph)
0.00 in
(0.00 mm)
2SM
11:24
Overcast
Light Snow
23°F / -5°C 19°F / -7°C 86% 29.98 in
(1015 mb)
SSW 8.1 mph
(SSW 13 kph)
0.00 in
(0.00 mm)
1 3/4SM
11:17
Overcast
Light Snow
23°F / -5°C 19°F / -7°C 86% 29.98 in
(1015 mb)
SSW 8.1 mph
(SSW 13 kph)
0.00 in
(0.00 mm)
2SM
11:09
Overcast
Light Snow
23°F / -5°C 19°F / -7°C 86% 29.98 in
(1015 mb)
SSW 6.9 mph
(SSW 11 kph)
0.00 in
(0.00 mm)
2SM
10:53
Overcast
Light Snow
23°F / -5°C 19°F / -7°C 86% 29.98 in
(1015 mb)
SSW 9.2 mph
(SSW 15 kph)
0.00 in
(0.00 mm)
8SM
10:21
Overcast
Unknown Precip
23°F / -5°C 19°F / -7°C 86% 30.01 in
(1016 mb)
SSW 8.1 mph
(SSW 13 kph)
0.00 in
(0.00 mm)
10SM
10:09
Overcast
Unknown Precip
23°F / -5°C 19°F / -7°C 86% 30.01 in
(1016 mb)
SSW 10.4 mph
(SSW 17 kph)
0.00 in
(0.00 mm)
4SM
10:02
Overcast
Unknown Precip
23°F / -5°C 19°F / -7°C 86% 30.01 in
(1016 mb)
SSW 10.4 mph
(SSW 17 kph)
0.00 in
(0.00 mm)
3SM
09:53
Overcast
Light Snow
23°F / -5°C 19°F / -7°C 86% 30.01 in
(1016 mb)
SSW 10.4 mph
(SSW 17 kph)
0.00 in
(0.00 mm)
2 1/2SM
09:46
Overcast
Light Snow
23°F / -5°C 19°F / -7°C 86% 30.01 in
(1016 mb)
SW 10.4 mph
(SW 17 kph)
0.00 in
(0.00 mm)
2SM
09:37
Overcast
Light Snow
23°F / -5°C 19°F / -7°C 86% 30.01 in
(1016 mb)
SW 8.1 mph
(SW 13 kph)
0.00 in
(0.00 mm)
1 3/4SM
09:26
Overcast
Light Snow
23°F / -5°C 19°F / -7°C 86% 30.01 in
(1016 mb)
SW 11.5 mph
(SW 19 kph)
0.00 in
(0.00 mm)
1 1/2SM
09:18
Overcast
Light Snow
23°F / -5°C 19°F / -7°C 86% 30.01 in
(1016 mb)
SSW 10.4 mph
(SSW 17 kph)
0.00 in
(0.00 mm)
1 1/4SM
09:10
Overcast
Light Snow
23°F / -5°C 19°F / -7°C 86% 30.01 in
(1016 mb)
SSW 8.1 mph
(SSW 13 kph)
0.00 in
(0.00 mm)
2 1/2SM
08:58
Overcast
Light Snow
23°F / -5°C 19°F / -7°C 86% 29.98 in
(1015 mb)
SSW 10.4 mph
(SSW 17 kph)
0.00 in
(0.00 mm)
3SM
08:53
Overcast
Light Snow
23°F / -5°C 19°F / -7°C 86% 29.98 in
(1015 mb)
SSW 9.2 mph
(SSW 15 kph)
0.00 in
(0.00 mm)
1 1/2SM
08:35
Overcast
Light Snow
23°F / -5°C 19°F / -7°C 86% 29.98 in
(1015 mb)
SW 6.9 mph
(SW 11 kph)
0.00 in
(0.00 mm)
1SM
08:26
Overcast
Light Snow
23°F / -5°C 19°F / -7°C 86% 29.98 in
(1015 mb)
SW 5.8 mph
(SW 9 kph)
0.00 in
(0.00 mm)
3/4SM
08:17
Overcast
Light Snow
23°F / -5°C 19°F / -7°C 86% 29.98 in
(1015 mb)
SW 8.1 mph
(SW 13 kph)
0.00 in
(0.00 mm)
3/4SM
07:58
Overcast
Light Snow
23°F / -5°C 19°F / -7°C 86% 29.98 in
(1015 mb)
SSW 8.1 mph
(SSW 13 kph)
0.00 in
(0.00 mm)
1 1/4SM
07:53
Overcast
Light Snow
23°F / -5°C 19°F / -7°C 86% 29.98 in
(1015 mb)
SSW 10.4 mph
(SSW 17 kph)
0.00 in
(0.00 mm)
2 1/2SM
07:48
Overcast
Light Snow
23°F / -5°C 19°F / -7°C 86% 29.98 in
(1015 mb)
SSW 10.4 mph
(SSW 17 kph)
0.00 in
(0.00 mm)
2 1/2SM
07:12
Overcast
Light Snow
23°F / -5°C 19°F / -7°C 86% 29.95 in
(1014 mb)
SW 10.4 mph
(SW 17 kph)
0.00 in
(0.00 mm)
8SM
06:53
Overcast
Unknown Precip
23°F / -5°C 19°F / -7°C 86% 29.95 in
(1014 mb)
SSW 9.2 mph
(SSW 15 kph)
0.00 in
(0.00 mm)
5SM
06:44
Overcast
Light Snow
23°F / -5°C 19°F / -7°C 86% 29.95 in
(1014 mb)
SSW 8.1 mph
(SSW 13 kph)
0.00 in
(0.00 mm)
3SM
06:25
Overcast
Light Snow
23°F / -5°C 19°F / -7°C 86% 29.95 in
(1014 mb)
SW 6.9 mph
(SW 11 kph)
0.00 in
(0.00 mm)
2 1/2SM
06:18
Overcast
Light Snow
23°F / -5°C 19°F / -7°C 86% 29.95 in
(1014 mb)
SSW 8.1 mph
(SSW 13 kph)
0.00 in
(0.00 mm)
2SM
06:15
Overcast
Light Snow
23°F / -5°C 19°F / -7°C 86% 29.95 in
(1014 mb)
SSW 11.5 mph
(SSW 19 kph)
0.00 in
(0.00 mm)
1 3/4SM
06:03
Overcast
Light Snow
23°F / -5°C 19°F / -7°C 86% 29.95 in
(1014 mb)
SSW 8.1 mph
(SSW 13 kph)
0.00 in
(0.00 mm)
2 1/2SM
05:53
Overcast
Unknown Precip
23°F / -5°C 19°F / -7°C 86% 29.95 in
(1014 mb)
SSW 9.2 mph
(SSW 15 kph)
0.00 in
(0.00 mm)
6SM
04:53
Overcast
Unknown Precip
23°F / -5°C 21°F / -6°C 93% 29.92 in
(1013 mb)
SSW 9.2 mph
(SSW 15 kph)
0.00 in
(0.00 mm)
5SM
03:53
Overcast
Unknown Precip
25°F / -4°C 21°F / -6°C 86% 29.92 in
(1013 mb)
SSW 8.1 mph
(SSW 13 kph)
0.00 in
(0.00 mm)
10SM
03:19
Overcast
Unknown Precip
25°F / -4°C 21°F / -6°C 86% 29.92 in
(1013 mb)
SSW 8.1 mph
(SSW 13 kph)
0.00 in
(0.00 mm)
10SM
02:53
Overcast
Light Freezing Rain
25°F / -4°C 21°F / -6°C 86% 29.89 in
(1012 mb)
SSW 8.1 mph
(SSW 13 kph)
0.00 in
(0.00 mm)
7SM
02:36
Overcast
Light Freezing Rain
25°F / -4°C 21°F / -6°C 86% 29.89 in
(1012 mb)
SW 9.2 mph
(SW 15 kph)
0.00 in
(0.00 mm)
5SM
01:53
Overcast
Unknown Precip
25°F / -4°C 21°F / -6°C 86% 29.89 in
(1012 mb)
SSW 9.2 mph
(SSW 15 kph)
0.00 in
(0.00 mm)
10SM
00:53
Overcast
Unknown Precip
25°F / -4°C 21°F / -6°C 86% 29.86 in
(1011 mb)
SW 11.5 mph
(SW 19 kph)
0.00 in
(0.00 mm)
10SM
Time Weather Temperature Dewpoint Humidity Pressure Winds Precip Visibility


Weather for websites

WeatherForYou.com, LLC is not responsible for any damages or problems caused by this service. Current weather conditions are obtained from the closest station including government and personal stations which may have varying degrees of accuracy. Weather forecasts are derived from the NOAA NDFD. Like all things, this site belongs to Jesus Christ... He just trusts me to maintain it. If you have any questions or comments email webmaster@weatherforyou.com

Copyright © 2014, WeatherForYou.com LLC. All rights reserved.